Location: Cutler
(25.6150°N, 80.3110°W)
Time: 19:37:00
(UTC-04:00)

Vanguard 1 - Pass Details

Date: 25 January 2018
Orbit: 650 x 3833 km, 34.3° (Epoch: 26 May)

Event Time Altitude Azimuth Distance (km) Brightness Sun altitude
Rises 23:42:01 0° 279° (W) 3,283 - -76.2°
Reaches altitude 10° 23:44:09 10° 286° (WNW) 2,537 - -76.6°
Maximum altitude 23:49:53 46° 0° (N) 1,575 - -77.7°
Drops below altitude 10° 23:59:47 10° 71° (ENE) 4,331 - -79.6°
Sets 00:04:38 0° 77° (ENE) 5,888 - -80.4°
